When you browse on this site, cookies collect data to enhance your experience and personalize the content and advertising you see.
Visit our Privacy Policy to learn more. By continuing to use the site, you agree to this use of cookies and data.
  • In United Kingdom
  • List of Countries
  • For 7 days
  • Water Temperature
  • Weather Map
  • Weather Widgets
  • user-avatar
    Login

    Hourly Weather Pinsk

    Today, 20 October, Sunday

    Time Temperature Precipitation Wind Pressure Humidity
    00:00 +15°C° 0 mm 2 mps 750 mmHg 86%
    01:00 +14°C° 0 mm 3 mps 750 mmHg 85%
    02:00 +14°C° 0 mm 3 mps 750 mmHg 80%
    03:00 +14°C° 0 mm 3 mps 750 mmHg 80%
    04:00 +14°C° 0 mm 3 mps 750 mmHg 80%
    05:00 +14°C° 0 mm 3 mps 750 mmHg 79%
    06:00 +14°C° 0 mm 3 mps 750 mmHg 79%
    07:00 +14°C° 0 mm 3 mps 750 mmHg 80%
    08:00 +14°C° 0 mm 2 mps 750 mmHg 79%
    09:00 +16°C° 0 mm 3 mps 751 mmHg 73%
    10:00 +17°C° 0 mm 3 mps 751 mmHg 67%
    11:00 +19°C° 0 mm 3 mps 751 mmHg 62%
    12:00 +20°C° 0 mm 3 mps 751 mmHg 59%
    13:00 +21°C° 0 mm 3 mps 751 mmHg 56%
    14:00 +21°C° 0 mm 3 mps 751 mmHg 54%
    15:00 +20°C° 0 mm 3 mps 751 mmHg 58%
    16:00 +19°C° 0 mm 2 mps 751 mmHg 63%
    17:00 +18°C° 0 mm 2 mps 751 mmHg 67%
    18:00 +17°C° 0 mm 2 mps 751 mmHg 69%
    19:00 +16°C° 0 mm 2 mps 751 mmHg 71%
    20:00 +15°C° 0 mm 2 mps 751 mmHg 73%
    21:00 +15°C° 0 mm 2 mps 751 mmHg 74%
    22:00 +15°C° 0 mm 2 mps 751 mmHg 76%
    23:00 +14°C° 0 mm 2 mps 752 mmHg 77%

    Tomorrow, 21 October, Monday

    Time Temperature Precipitation Wind Pressure Humidity
    00:00 +14°C° 0 mm 2 mps 752 mmHg 77%
    01:00 +14°C° 0 mm 2 mps 752 mmHg 78%
    02:00 +14°C° 0 mm 2 mps 752 mmHg 78%
    03:00 +13°C° 0 mm 2 mps 752 mmHg 79%
    04:00 +13°C° 0 mm 2 mps 752 mmHg 80%
    05:00 +13°C° 0 mm 2 mps 751 mmHg 80%
    06:00 +13°C° 0 mm 2 mps 752 mmHg 79%
    07:00 +13°C° 0 mm 2 mps 752 mmHg 79%
    08:00 +13°C° 0 mm 2 mps 752 mmHg 78%
    09:00 +15°C° 0 mm 2 mps 752 mmHg 71%
    10:00 +17°C° 0 mm 2 mps 752 mmHg 65%
    11:00 +19°C° 0 mm 2 mps 752 mmHg 58%
    12:00 +20°C° 0 mm 2 mps 753 mmHg 56%
    13:00 +20°C° 0 mm 2 mps 753 mmHg 54%
    14:00 +21°C° 0 mm 2 mps 753 mmHg 52%
    15:00 +21°C° 0 mm 1 mps 753 mmHg 57%
    16:00 +19°C° 0 mm 1 mps 753 mmHg 62%
    17:00 +16°C° 0 mm 0 mps 753 mmHg 67%
    18:00 +16°C° 0 mm 1 mps 753 mmHg 70%
    19:00 +16°C° 0 mm 1 mps 753 mmHg 73%
    20:00 +15°C° 0 mm 1 mps 754 mmHg 75%
    21:00 +15°C° 0 mm 1 mps 754 mmHg 77%
    22:00 +14°C° 0 mm 1 mps 754 mmHg 79%
    23:00 +14°C° 0 mm 1 mps 754 mmHg 81%

    Day after tomorrow, 22 October, Tuesday

    Time Temperature Precipitation Wind Pressure Humidity
    00:00 +13°C° 0 mm 1 mps 754 mmHg 82%
    01:00 +13°C° 0 mm 1 mps 754 mmHg 84%
    02:00 +13°C° 0 mm 1 mps 754 mmHg 85%
    03:00 +13°C° 0 mm 1 mps 754 mmHg 86%
    04:00 +12°C° 0 mm 1 mps 754 mmHg 87%
    05:00 +12°C° 0 mm 2 mps 754 mmHg 88%
    06:00 +13°C° 0 mm 2 mps 755 mmHg 87%
    07:00 +13°C° 0 mm 2 mps 755 mmHg 86%
    08:00 +13°C° 0 mm 2 mps 755 mmHg 85%
    09:00 +15°C° 0 mm 2 mps 755 mmHg 78%
    10:00 +17°C° 0 mm 2 mps 755 mmHg 71%
    11:00 +19°C° 0 mm 2 mps 755 mmHg 64%
    12:00 +20°C° 0 mm 2 mps 755 mmHg 61%
    13:00 +20°C° 0 mm 2 mps 755 mmHg 59%
    14:00 +21°C° 0 mm 2 mps 755 mmHg 57%
    15:00 +20°C° 0 mm 2 mps 754 mmHg 62%
    16:00 +19°C° 0 mm 2 mps 754 mmHg 67%
    17:00 +17°C° 0 mm 2 mps 754 mmHg 72%
    18:00 +17°C° 0 mm 2 mps 754 mmHg 74%
    19:00 +16°C° 0 mm 2 mps 754 mmHg 77%
    20:00 +15°C° 0 mm 2 mps 754 mmHg 79%
    21:00 +15°C° 0 mm 2 mps 754 mmHg 80%
    22:00 +15°C° 0 mm 2 mps 753 mmHg 81%
    23:00 +14°C° 0 mm 2 mps 753 mmHg 82%

    23 October, Wednesday

    Time Temperature Precipitation Wind Pressure Humidity
    00:00 +14°C° 0 mm 2 mps 753 mmHg 84%
    01:00 +13°C° 0 mm 2 mps 753 mmHg 86%
    02:00 +13°C° 0 mm 2 mps 753 mmHg 88%
    03:00 +13°C° 0 mm 2 mps 753 mmHg 89%
    04:00 +12°C° 0 mm 2 mps 753 mmHg 91%
    05:00 +12°C° 0 mm 2 mps 752 mmHg 93%
    06:00 +12°C° 0 mm 2 mps 753 mmHg 92%
    07:00 +12°C° 0 mm 2 mps 753 mmHg 92%
    08:00 +12°C° 0 mm 2 mps 753 mmHg 92%
    09:00 +14°C° 0 mm 2 mps 753 mmHg 86%
    10:00 +15°C° 0 mm 2 mps 753 mmHg 80%
    11:00 +17°C° 0 mm 2 mps 753 mmHg 74%
    12:00 +17°C° 0 mm 2 mps 753 mmHg 73%
    13:00 +17°C° 0 mm 3 mps 753 mmHg 72%
    14:00 +18°C° 0 mm 3 mps 753 mmHg 72%
    15:00 +17°C° 0 mm 3 mps 753 mmHg 75%
    16:00 +15°C° 0 mm 2 mps 753 mmHg 78%
    17:00 +14°C° 0 mm 2 mps 753 mmHg 82%
    18:00 +13°C° 0 mm 2 mps 753 mmHg 83%
    19:00 +13°C° 0 mm 2 mps 753 mmHg 83%
    20:00 +12°C° 0 mm 2 mps 753 mmHg 84%
    21:00 +10°C° 0 mm 2 mps 753 mmHg 85%
    22:00 +9°C° 0 mm 2 mps 753 mmHg 87%
    23:00 +10°C° 0 mm 1 mps 753 mmHg 88%

    24 October, Thursday

    Time Temperature Precipitation Wind Pressure Humidity
    00:00 +9°C° 0 mm 1 mps 753 mmHg 89%
    01:00 +9°C° 0 mm 1 mps 753 mmHg 90%
    02:00 +9°C° 0 mm 1 mps 753 mmHg 90%
    03:00 +8°C° 0 mm 1 mps 753 mmHg 91%
    04:00 +8°C° 0 mm 1 mps 753 mmHg 91%
    05:00 +8°C° 0 mm 1 mps 753 mmHg 92%
    06:00 +7°C° 0 mm 2 mps 753 mmHg 91%
    07:00 +7°C° 0 mm 2 mps 753 mmHg 91%
    08:00 +7°C° 0 mm 2 mps 753 mmHg 91%
    09:00 +9°C° 0 mm 2 mps 753 mmHg 83%
    10:00 +12°C° 0 mm 2 mps 753 mmHg 75%
    11:00 +13°C° 0 mm 3 mps 753 mmHg 67%
    12:00 +13°C° 0 mm 3 mps 752 mmHg 65%
    13:00 +14°C° 0 mm 3 mps 752 mmHg 62%
    14:00 +16°C° 0 mm 3 mps 752 mmHg 60%
    15:00 +14°C° 0 mm 3 mps 752 mmHg 65%
    16:00 +13°C° 0 mm 3 mps 751 mmHg 69%
    17:00 +11°C° 0 mm 3 mps 751 mmHg 74%
    18:00 +11°C° 0 mm 3 mps 751 mmHg 74%
    19:00 +10°C° 0 mm 3 mps 751 mmHg 74%
    20:00 +9°C° 0 mm 3 mps 751 mmHg 75%
    21:00 +9°C° 0 mm 3 mps 751 mmHg 76%
    22:00 +9°C° 0 mm 3 mps 751 mmHg 78%
    23:00 +8°C° 0 mm 3 mps 751 mmHg 79%

    25 October, Friday

    Time Temperature Precipitation Wind Pressure Humidity
    00:00 +8°C° 0 mm 3 mps 751 mmHg 82%
    01:00 +8°C° 0 mm 3 mps 751 mmHg 84%
    02:00 +8°C° 0 mm 3 mps 751 mmHg 87%
    03:00 +8°C° 0 mm 3 mps 751 mmHg 89%
    04:00 +8°C° 0 mm 3 mps 750 mmHg 91%
    05:00 +8°C° 0 mm 3 mps 750 mmHg 93%
    06:00 +8°C° 0 mm 3 mps 750 mmHg 94%
    07:00 +8°C° 0 mm 3 mps 750 mmHg 94%
    08:00 +8°C° 0 mm 3 mps 750 mmHg 95%
    09:00 +10°C° 0 mm 3 mps 750 mmHg 88%
    10:00 +12°C° 0 mm 3 mps 750 mmHg 81%
    11:00 +14°C° 0 mm 3 mps 750 mmHg 74%
    12:00 +16°C° 0 mm 3 mps 750 mmHg 70%
    13:00 +17°C° 0 mm 3 mps 750 mmHg 66%
    14:00 +18°C° 0 mm 3 mps 750 mmHg 62%
    15:00 +17°C° 0 mm 2 mps 750 mmHg 68%
    16:00 +16°C° 0 mm 2 mps 750 mmHg 73%
    17:00 +14°C° 0 mm 1 mps 749 mmHg 79%
    18:00 +14°C° 0 mm 1 mps 750 mmHg 80%
    19:00 +13°C° 0 mm 1 mps 750 mmHg 82%
    20:00 +13°C° 0 mm 1 mps 750 mmHg 84%
    21:00 +12°C° 0 mm 1 mps 750 mmHg 85%
    22:00 +12°C° 0 mm 1 mps 750 mmHg 85%
    23:00 +11°C° 0 mm 1 mps 751 mmHg 86%
    Show more